User: anonymous   Login
Location: Tierra del Sol
(32.6128°N, 116.3319°W)
Time: 04:52:31
(UTC-07:00)
Language:

Envisat - Orbit

View from above orbital plane
View from above orbital plane
View from above satellite
View from above satellite

Ground track
Ground track

The orbit data is extracted from the following two-line orbital elements,

1 27386U 02009A   18202.18989442 -.00000018  00000-0  74922-5 0  9994
2 27386  98.1820 234.6443 0001378  95.8842 304.3262 14.37926084858417
Epoch (UTC): 21 July 2018 04:33:26
Eccentricity: 0.0001378
inclination: 98.1820°
perigee height: 764 km
apogee height: 766 km
right ascension of ascending node: 234.6443°
argument of perigee: 95.8842°
revolutions per day: 14.37926084
mean anomaly at epoch: 304.3262°
orbit number at epoch: 85841

The dashed part of the orbit path shows where the satellite is in the earth's shadow,  

DLR